#timestamp,LO_Frequency,Hit,StdDev 
1620950415.5,286047002.3,N
1620950435.3,286047002.3,N
1620950455.2,286046999.8,N
1620950475.0,286047002.3,N
1620950475.9,286047002.3,N
1620950495.7,286047001.0,N
1620950515.6,286047002.2,N
1620950535.4,286047001.4,N
1620950555.3,286047003.5,N
1620950575.1,286047003.0,N
1620950595.8,286047003.6,N
1620950615.7,286047004.0,N
1620950635.5,286047000.0,N
1620950655.4,286047000.7,N
1620950675.2,286047000.4,N
1620950695.0,286047000.2,N
1620950695.9,286047000.2,N
1620950715.8,286047001.5,N
1620950735.6,286047005.4,Y
1620950755.5,286047003.7,P
1620950775.3,286047001.6,N
1620950795.1,286047003.3,P
1620950815.9,286047001.7,N
1620950835.7,286047001.9,N
1620950855.5,286047004.0,Y
1620950875.4,286047001.6,P
1620950895.2,286047001.9,P
1620950915.1,286047004.3,P
1620950916.0,286047004.3,Y
1620950935.8,286046998.2,P
1620950955.6,286046999.1,N
1620950975.5,286046997.8,N
1620950995.3,286046997.0,N
1620951015.2,286046997.0,N
1620951035.9,286046998.0,N
1620951055.7,286046997.1,N
1620951075.6,286046998.5,N
1620951095.4,286047000.8,N
1620951115.2,286046998.2,N
1620951135.1,286046999.3,N
1620951136.0,286046999.3,N
1620951155.8,286046998.4,N
1620951175.7,286047000.3,N
1620951195.5,286047001.1,N
1620951215.3,286046998.5,N
1620951235.2,286046994.9,Y
1620951255.0,286046999.5,P
1620951255.9,286046999.5,N
1620951275.8,286047000.7,N
1620951295.6,286047001.1,N
1620951315.4,286046996.9,Y
1620951335.3,286046999.4,P
1620951355.1,286047000.9,P
1620951375.8,286046999.8,N
1620951395.7,286047000.5,N
1620951415.5,286047000.9,N
1620951435.4,286047001.2,N
1620951455.2,286046997.1,Y
1620951475.0,286046995.7,P
1620951475.9,286046995.7,N
1620951495.8,286046993.4,P
1620951515.6,286046994.6,N
1620951535.4,286046993.4,N
1620951555.3,286046995.8,N
1620951575.1,286046996.6,N
1620951595.9,286046996.9,N
1620951615.7,286046995.8,N
1620951635.5,286046995.1,N
1620951655.4,286046997.2,N
1620951675.2,286046998.4,N
1620951695.1,286047000.7,N
1620951696.0,286047000.7,N
1620951715.8,286046998.4,N
1620951735.6,286047002.8,N
1620951755.5,286047002.5,N
1620951775.3,286046999.7,N
1620951795.1,286046999.7,N
1620951815.9,286047000.3,N
1620951835.7,286046998.1,N
1620951855.6,286046997.7,N
1620951875.4,286046999.6,N
1620951895.2,286046996.5,N
1620951915.1,286046996.5,N
1620951916.0,286046996.5,N
1620951935.8,286046999.6,N
1620951955.7,286046998.2,N
1620951975.5,286047001.2,N
1620951995.3,286046998.1,N
1620952015.2,286047001.2,N
1620952035.9,286046999.6,N
1620952055.7,286046996.7,N
1620952075.6,286046998.6,N
1620952095.4,286046997.0,N
1620952115.3,286046997.3,N
1620952135.1,286046999.9,N
1620952136.0,286046999.9,N
1620952155.8,286046999.8,N
1620952175.7,286047001.0,N
1620952195.5,286046998.1,N
1620952215.3,286047000.4,N
1620952235.2,286047000.9,N
1620952255.0,286046999.3,N
1620952255.9,286046999.3,N
1620952275.8,286046998.4,N
1620952295.6,286047000.5,N
1620952315.4,286047000.2,N
1620952335.3,286047000.7,N
1620952355.1,286047002.5,N
1620952375.9,286047000.1,N
1620952395.7,286047001.5,N
1620952415.5,286047001.5,N
1620952435.4,286047002.6,N
1620952455.2,286047000.1,N
1620952475.0,286047000.8,N
1620952475.9,286047000.8,N
1620952495.8,286046999.3,N
1620952515.6,286046996.6,N
1620952535.5,286046997.6,N
1620952555.3,286046999.1,N
1620952575.1,286047000.1,N
1620952595.9,286047002.3,N
1620952615.7,286046998.4,N
1620952635.5,286046999.6,N
1620952655.4,286046997.0,N
1620952675.2,286046998.9,N
1620952695.1,286046998.9,N
1620952696.0,286046998.9,N
1620952715.8,286046998.0,N
1620952735.6,286046999.3,N
1620952755.5,286046999.5,N
1620952775.3,286047000.5,N
1620952795.2,286046999.0,N
1620952815.9,286046996.5,N
1620952835.7,286046998.9,N
1620952855.6,286046998.9,N
1620952875.4,286046998.5,N
1620952895.2,286046998.1,N
1620952915.1,286046998.2,N
1620952916.0,286046998.2,N
1620952935.8,286046996.7,N
1620952955.7,286046997.7,N
1620952975.5,286046998.8,N
1620952995.3,286046998.2,N
1620953015.2,286046999.8,N
1620953035.0,286047000.7,N
1620953035.9,286047000.7,N
1620953055.8,286046996.6,N
1620953075.6,286046997.8,N
1620953095.4,286046998.4,N
1620953115.3,286047000.9,N
1620953135.1,286047002.2,N
1620953155.8,286047000.1,N
1620953175.7,286046998.9,N
1620953195.5,286046998.8,N
1620953215.4,286046998.5,N
1620953235.2,286046998.8,N
1620953255.0,286046998.2,N
1620953255.9,286046998.2,N
1620953275.8,286046998.9,N
1620953295.6,286046998.3,N
1620953315.5,286046998.5,N
1620953335.3,286047000.1,N
1620953355.1,286047002.7,N
1620953375.9,286047000.7,N
1620953395.7,286047000.6,N
1620953415.5,286046999.4,N
1620953435.4,286046999.1,N
1620953455.2,286046998.8,N
1620953475.1,286046996.5,N
1620953476.0,286046996.5,N
1620953495.8,286046997.7,N
1620953515.6,286046999.6,N
1620953535.5,286047000.4,N
1620953555.3,286047001.1,N
1620953575.2,286046998.5,N
1620953595.9,286047001.1,N
1620953615.7,286046998.9,N
1620953635.6,286047001.0,N
1620953655.4,286046999.7,N
1620953675.2,286047002.8,N
1620953695.1,286046996.6,N
1620953696.0,286046996.6,N
1620953715.8,286046998.3,N
1620953735.7,286046998.1,N
1620953755.5,286047000.5,N
1620953775.3,286047000.9,N
1620953795.2,286046998.9,N
1620953815.0,286047000.6,N
1620953815.9,286047000.6,N
1620953835.8,286047002.7,N
1620953855.6,286047002.7,N
1620953875.4,286047000.3,N
1620953895.3,286047000.8,N
1620953915.1,286047002.1,N
1620953935.8,286047000.3,N
1620953955.7,286046998.9,N
1620953975.5,286046996.5,N
1620953995.4,286046997.5,N
